カタログに戻る

KUIPER-00430

運用中通信LEO
NORAD 68935·PAYLOAD·🇺🇸 United States

打ち上げ Apr 30, 2026 から Guiana Space Centre

Loading…

次のパス (今後24時間)

TLE

最新Source: CelesTrak SupGP

元期: Sep 15, 2026, 04:40 UTC

1 68935C 26098S   26258.19454861 -.00011952  00000+0 -15645-2 0  2587
2 68935  51.9043  22.5467 0000658 105.0933 125.9972 14.79942725    17

AllMySatでKUIPER-00430をリアルタイム追跡

Download on the App Store